�������l�o���
Date,Time,MP-1(��Sv/h),MP-2(��Sv/h),MP-3(��Sv/h),MP-4(��Sv/h),MP-5(��Sv/h),MP-6(��Sv/h),MP-7(��Sv/h),MP-8(��Sv/h),����,����(m/s),���J
2015/11/30,00:00,1.672,2.665,3.120,2.885,3.033,0.867,1.540,1.470,���k��,2.3,��
2015/11/30,00:10,1.668,2.670,3.120,2.887,3.032,0.868,1.540,1.472,�k��,2.6,��
2015/11/30,00:20,1.668,2.665,3.122,2.885,3.035,0.868,1.542,1.470,�k��,1.5,��
2015/11/30,00:30,1.673,2.665,3.120,2.883,3.033,0.872,1.540,1.467,���k��,1.4,��
2015/11/30,00:40,1.672,2.667,3.122,2.888,3.035,0.870,1.540,1.468,���k��,1.7,��
2015/11/30,00:50,1.672,2.670,3.122,2.885,3.032,0.868,1.537,1.468,���k��,1.5,��
2015/11/30,01:00,1.670,2.668,3.118,2.883,3.033,0.868,1.538,1.472,���k��,0.8,��
2015/11/30,01:10,1.672,2.668,3.118,2.883,3.035,0.868,1.538,1.470,�k��,1.2,��
2015/11/30,01:20,1.668,2.665,3.123,2.890,3.035,0.865,1.540,1.468,�k��,1.4,��
2015/11/30,01:30,1.667,2.667,3.120,2.883,3.035,0.870,1.538,1.468,-,CALM,��
2015/11/30,01:40,1.667,2.668,3.120,2.883,3.033,0.868,1.538,1.468,-,CALM,��
2015/11/30,01:50,1.668,2.667,3.120,2.887,3.037,0.868,1.537,1.468,-,CALM,��
2015/11/30,02:00,1.667,2.665,3.122,2.883,3.035,0.870,1.540,1.472,�k�k��,1.7,��
2015/11/30,02:10,1.667,2.667,3.120,2.883,3.032,0.870,1.538,1.472,�k,1.2,��
2015/11/30,02:20,1.672,2.667,3.118,2.887,3.035,0.870,1.540,1.470,�k�k��,1.4,��
2015/11/30,02:30,1.673,2.663,3.118,2.883,3.033,0.870,1.540,1.473,�k�k��,2.2,��
2015/11/30,02:40,1.670,2.667,3.115,2.887,3.033,0.868,1.540,1.472,�k�k��,3.7,��
2015/11/30,02:50,1.670,2.670,3.118,2.885,3.038,0.870,1.537,1.472,�k�k��,3.2,��
2015/11/30,03:00,1.668,2.667,3.118,2.887,3.037,0.870,1.538,1.470,�k�k��,2.0,��
2015/11/30,03:10,1.668,2.668,3.117,2.888,3.038,0.870,1.538,1.470,�k,3.0,��
2015/11/30,03:20,1.672,2.667,3.122,2.885,3.037,0.867,1.537,1.470,�k,3.4,��
2015/11/30,03:30,1.670,2.665,3.123,2.888,3.033,0.868,1.535,1.468,�k�k��,4.4,��
2015/11/30,03:40,1.673,2.665,3.118,2.888,3.033,0.868,1.538,1.472,�k�k��,3.8,��
2015/11/30,03:50,1.670,2.662,3.117,2.885,3.037,0.873,1.540,1.468,�k�k��,3.8,��
2015/11/30,04:00,1.670,2.663,3.117,2.885,3.035,0.868,1.538,1.468,�k�k��,4.1,��
2015/11/30,04:10,1.670,2.667,3.117,2.883,3.033,0.868,1.537,1.468,�k�k��,3.4,��
2015/11/30,04:20,1.668,2.662,3.118,2.885,3.035,0.870,1.533,1.470,�k��,2.6,��
2015/11/30,04:30,1.670,2.667,3.118,2.883,3.033,0.872,1.537,1.470,�k��,2.6,��
2015/11/30,04:40,1.672,2.665,3.118,2.887,3.037,0.868,1.538,1.470,�k��,2.8,��
2015/11/30,04:50,1.670,2.665,3.113,2.887,3.033,0.868,1.537,1.470,�k��,2.6,��
2015/11/30,05:00,1.665,2.667,3.120,2.878,3.033,0.865,1.537,1.468,�k��,2.6,��
2015/11/30,05:10,1.668,2.665,3.118,2.883,3.035,0.867,1.537,1.468,�k��,3.5,��
2015/11/30,05:20,1.665,2.668,3.118,2.885,3.032,0.868,1.538,1.472,�k��,3.3,��
2015/11/30,05:30,1.667,2.668,3.117,2.883,3.033,0.870,1.540,1.470,�k��,4.7,��
2015/11/30,05:40,1.667,2.665,3.122,2.887,3.035,0.868,1.537,1.472,�k��,5.4,��
2015/11/30,05:50,1.672,2.667,3.118,2.887,3.035,0.867,1.538,1.472,�k��,5.4,��
2015/11/30,06:00,1.670,2.668,3.118,2.888,3.035,0.867,1.538,1.470,�k��,4.9,��
2015/11/30,06:10,1.673,2.668,3.117,2.888,3.033,0.867,1.537,1.470,�k��,4.6,��
2015/11/30,06:20,1.673,2.667,3.120,2.888,3.032,0.868,1.537,1.470,�k��,4.3,��
2015/11/30,06:30,1.668,2.667,3.120,2.887,3.033,0.867,1.540,1.468,�k��,4.7,��
2015/11/30,06:40,1.668,2.665,3.122,2.888,3.033,0.868,1.538,1.468,�k��,4.2,��
2015/11/30,06:50,1.667,2.667,3.120,2.888,3.038,0.868,1.537,1.468,�k��,4.3,��
2015/11/30,07:00,1.668,2.663,3.120,2.888,3.035,0.867,1.537,1.468,�k��,3.4,��
2015/11/30,07:10,1.672,2.668,3.122,2.890,3.038,0.865,1.537,1.467,�k��,3.6,��
2015/11/30,07:20,1.673,2.665,3.118,2.890,3.033,0.868,1.538,1.468,�k�k��,1.7,��
2015/11/30,07:30,1.672,2.665,3.120,2.892,3.035,0.865,1.537,1.467,�k��,2.0,��
2015/11/30,07:40,1.670,2.665,3.120,2.890,3.035,0.867,1.538,1.468,�k��,1.4,��
2015/11/30,07:50,1.668,2.665,3.120,2.893,3.037,0.865,1.538,1.468,�k�k��,1.2,��
2015/11/30,08:00,1.673,2.667,3.122,2.890,3.037,0.865,1.537,1.472,�k�k��,1.7,��
2015/11/30,08:10,1.673,2.665,3.125,2.888,3.040,0.865,1.538,1.468,�k�k��,1.7,��
2015/11/30,08:20,1.675,2.667,3.120,2.887,3.037,0.865,1.538,1.470,���k��,2.3,��
2015/11/30,08:30,1.675,2.668,3.125,2.890,3.037,0.865,1.540,1.472,���k��,2.8,��
2015/11/30,08:40,1.675,2.667,3.127,2.888,3.038,0.867,1.542,1.468,�k��,1.7,��
2015/11/30,08:50,1.678,2.668,3.125,2.893,3.035,0.870,1.538,1.472,�k��,1.7,��
2015/11/30,09:00,1.678,2.668,3.127,2.892,3.040,0.867,1.538,1.473,�k��,1.7,��
2015/11/30,09:10,1.677,2.668,3.127,2.888,3.042,0.868,1.540,1.472,�k��,1.7,��
2015/11/30,09:20,1.672,2.672,3.128,2.892,3.040,0.870,1.538,1.472,�k�k��,2.0,��
2015/11/30,09:30,1.678,2.670,3.128,2.890,3.038,0.867,1.540,1.470,���k��,1.7,��
2015/11/30,09:40,1.675,2.675,3.128,2.893,3.042,0.868,1.542,1.473,�k��,1.7,��
2015/11/30,09:50,1.677,2.673,3.128,2.895,3.038,0.872,1.538,1.470,�k��,2.0,��
2015/11/30,10:00,1.678,2.672,3.127,2.893,3.023,0.868,1.540,1.475,�k��,2.2,��
2015/11/30,10:10,1.673,2.672,3.128,2.895,3.023,0.870,1.542,1.473,�k��,1.7,��
2015/11/30,10:20,1.675,2.672,3.130,2.895,3.022,0.870,1.542,1.473,�k�k��,1.7,��
2015/11/30,10:30,1.673,2.673,3.123,2.895,3.028,0.872,1.543,1.473,�k��,1.2,��
2015/11/30,10:40,1.680,2.672,3.112,2.893,-,0.872,1.543,1.472,��,1.1,��
2015/11/30,10:50,1.682,2.677,3.123,2.897,-,0.870,1.542,1.475,��쓌,0.6,��
2015/11/30,11:00,1.680,2.673,3.130,2.900,-,0.868,1.540,1.473,��쐼,0.9,��
2015/11/30,11:10,1.678,2.673,3.130,2.897,-,0.870,1.543,1.473,�쐼,0.9,��
2015/11/30,11:20,1.677,2.675,3.130,2.895,-,0.872,1.545,1.472,-,CALM,��
2015/11/30,11:30,1.675,2.677,3.135,2.895,-,0.870,1.543,1.473,-,CALM,��
2015/11/30,11:40,1.675,2.680,3.132,2.898,-,0.872,1.543,1.477,��,0.9,��
2015/11/30,11:50,1.683,2.675,3.133,2.898,-,0.873,1.543,1.475,�k��,0.6,��
2015/11/30,12:00,1.680,2.677,3.132,2.898,-,0.872,1.543,1.475,���k��,0.9,��
2015/11/30,12:10,1.682,2.673,3.135,2.900,-,0.870,1.543,1.475,��,0.9,��
2015/11/30,12:20,1.680,2.677,3.135,2.902,-,0.873,1.542,1.475,���k��,1.1,��
2015/11/30,12:30,1.680,2.675,3.135,2.898,-,0.868,1.543,1.473,���쓌,1.2,��
2015/11/30,12:40,1.680,2.677,3.132,2.903,-,0.870,1.543,1.472,���쓌,0.9,��
2015/11/30,12:50,1.680,2.677,3.128,2.898,-,0.872,1.545,1.473,�쓌,1.7,��
2015/11/30,13:00,1.675,2.678,3.130,2.902,-,0.870,1.547,1.475,���쓌,2.0,��
2015/11/30,13:10,1.678,2.675,3.137,2.898,-,0.873,1.543,1.477,���쓌,1.9,��
2015/11/30,13:20,1.682,2.673,3.135,2.900,3.047,0.872,1.547,1.473,���쓌,1.7,��
2015/11/30,13:30,1.680,2.675,3.137,2.900,3.040,0.873,1.543,1.472,�쓌,2.3,��
2015/11/30,13:40,1.687,2.675,3.132,2.898,3.045,0.872,1.543,1.472,���쓌,1.5,��
2015/11/30,13:50,1.680,2.678,3.137,2.895,3.063,0.872,1.543,1.472,��쓌,2.6,��
2015/11/30,14:00,1.683,2.673,3.133,2.898,3.067,0.872,1.545,1.473,��,2.6,��
2015/11/30,14:10,1.680,2.675,3.138,2.898,3.065,0.872,1.548,1.475,��,2.6,��
2015/11/30,14:20,1.682,2.675,3.140,2.897,3.065,0.872,1.547,1.475,��,2.3,��
2015/11/30,14:30,1.678,2.675,3.138,2.897,3.067,0.873,1.547,1.473,��,3.1,��
2015/11/30,14:40,1.680,2.675,3.137,2.897,3.067,0.873,1.547,1.475,��,3.1,��
2015/11/30,14:50,1.680,2.677,3.140,2.900,3.072,0.873,1.547,1.472,��쓌,2.8,��
2015/11/30,15:00,1.683,2.678,3.137,2.897,3.070,0.873,1.547,1.477,��쓌,3.4,��
2015/11/30,15:10,1.682,2.677,3.140,2.897,3.068,0.873,1.545,1.473,��쓌,2.6,��
2015/11/30,15:20,1.683,2.675,3.138,2.900,3.067,0.873,1.545,1.475,��쓌,2.9,��
2015/11/30,15:30,1.682,2.678,3.142,2.902,3.070,0.873,1.547,1.475,��쓌,3.4,��
2015/11/30,15:40,1.680,2.678,3.135,2.902,3.067,0.873,1.545,1.477,��쓌,3.4,��
2015/11/30,15:50,1.683,2.678,3.135,2.902,3.065,0.873,1.547,1.473,��쓌,3.6,��
2015/11/30,16:00,1.687,2.675,3.138,2.898,3.048,0.872,1.547,1.473,��,3.9,��
2015/11/30,16:10,1.683,2.677,3.133,2.902,3.030,0.877,1.547,1.473,��쓌,5.2,��
2015/11/30,16:20,1.682,2.677,3.135,2.898,3.047,0.875,1.543,1.473,��,5.2,��
2015/11/30,16:30,1.683,2.677,3.130,2.898,3.052,0.877,1.547,1.475,��,5.3,��
2015/11/30,16:40,1.680,2.677,3.132,2.900,3.047,0.875,1.547,1.473,��,5.1,��
2015/11/30,16:50,1.680,2.675,3.130,2.895,3.050,0.878,1.548,1.473,��,4.3,��
2015/11/30,17:00,1.680,2.673,3.135,2.892,3.052,0.873,1.543,1.472,��쐼,4.9,��
2015/11/30,17:10,1.682,2.678,3.135,2.895,3.055,0.875,1.547,1.473,��쐼,5.7,��
2015/11/30,17:20,1.678,2.675,3.132,2.897,3.055,0.875,1.543,1.473,��,6.9,��
2015/11/30,17:30,1.680,2.673,3.132,2.897,3.053,0.875,1.545,1.470,��,8.1,��
2015/11/30,17:40,1.678,2.673,3.127,2.898,3.055,0.872,1.545,1.473,��,9.7,��
2015/11/30,17:50,1.680,2.678,3.133,2.893,3.053,0.873,1.547,1.472,��,9.2,��
2015/11/30,18:00,1.682,2.672,3.135,2.895,3.050,0.875,1.545,1.473,��,8.3,��
2015/11/30,18:10,1.682,2.675,3.133,2.895,3.048,0.875,1.545,1.473,��,8.8,��
2015/11/30,18:20,1.683,2.670,3.132,2.895,3.052,0.873,1.545,1.472,��쐼,4.6,��
2015/11/30,18:30,1.680,2.672,3.128,2.895,3.048,0.875,1.545,1.470,��쐼,2.3,��
2015/11/30,18:40,1.682,2.670,3.135,2.898,3.050,0.873,1.545,1.470,��,4.3,��
2015/11/30,18:50,1.680,2.672,3.128,2.897,3.048,0.875,1.545,1.472,��,6.6,��
2015/11/30,19:00,1.678,2.673,3.132,2.893,3.045,0.875,1.545,1.475,��,8.2,��
2015/11/30,19:10,1.678,2.672,3.130,2.895,3.047,0.873,1.543,1.473,��,8.1,��
2015/11/30,19:20,1.680,2.673,3.128,2.892,3.048,0.875,1.543,1.473,��,7.5,��
2015/11/30,19:30,1.682,2.672,3.128,2.895,3.048,0.875,1.543,1.473,��쐼,5.8,��
2015/11/30,19:40,1.683,2.668,3.125,2.895,3.045,0.875,1.543,1.477,��,5.1,��
2015/11/30,19:50,1.683,2.672,3.125,2.893,3.047,0.875,1.545,1.475,��,4.5,��
2015/11/30,20:00,1.682,2.668,3.128,2.895,3.042,0.875,1.545,1.473,��,3.1,��
2015/11/30,20:10,1.683,2.668,3.125,2.895,3.048,0.877,1.543,1.473,��쐼,1.9,��
2015/11/30,20:20,1.682,2.668,3.128,2.895,3.047,0.875,1.543,1.472,��쓌,3.4,��
2015/11/30,20:30,1.682,2.672,3.133,2.893,3.048,0.875,1.545,1.472,��,3.3,��
2015/11/30,20:40,1.678,2.668,3.128,2.893,3.047,0.875,1.543,1.472,��,3.3,��
2015/11/30,20:50,1.680,2.673,3.127,2.892,3.043,0.877,1.543,1.472,��쐼,3.2,��
2015/11/30,21:00,1.678,2.670,3.128,2.888,3.045,0.875,1.543,1.472,��쐼,3.2,��
2015/11/30,21:10,1.675,2.670,3.127,2.897,3.047,0.873,1.545,1.473,��,1.5,��
2015/11/30,21:20,1.677,2.668,3.125,2.897,3.048,0.875,1.545,1.472,��,0.8,��
2015/11/30,21:30,1.680,2.668,3.123,2.893,3.043,0.875,1.545,1.473,��,0.8,��
2015/11/30,21:40,1.678,2.667,3.128,2.892,3.047,0.873,1.543,1.472,��,0.6,��
2015/11/30,21:50,1.680,2.668,3.128,2.893,3.047,0.872,1.543,1.472,��쓌,1.1,��
2015/11/30,22:00,1.678,2.670,3.125,2.892,3.040,0.877,1.543,1.470,��쐼,1.9,��
2015/11/30,22:10,1.678,2.667,3.125,2.895,3.047,0.877,1.547,1.468,���쐼,3.0,��
2015/11/30,22:20,1.680,2.670,3.127,2.895,3.042,0.875,1.542,1.472,���쐼,4.2,��
2015/11/30,22:30,1.678,2.672,3.127,2.890,3.047,0.873,1.543,1.472,���쐼,4.0,��
2015/11/30,22:40,1.678,2.672,3.127,2.892,3.043,0.877,1.545,1.473,�쐼,3.9,��
2015/11/30,22:50,1.677,2.672,3.127,2.892,3.045,0.875,1.545,1.472,�쐼,3.5,��
2015/11/30,23:00,1.678,2.668,3.127,2.892,3.043,0.877,1.545,1.470,���쐼,3.9,��
2015/11/30,23:10,1.683,2.670,3.123,2.888,3.043,0.875,1.542,1.472,���쐼,5.0,��
2015/11/30,23:20,1.682,2.670,3.122,2.892,3.042,0.875,1.543,1.475,��,6.2,��
2015/11/30,23:30,1.683,2.673,3.127,2.895,3.050,0.877,1.543,1.475,��,7.6,��
2015/11/30,23:40,1.683,2.673,3.127,2.897,3.043,0.877,1.543,1.472,��,6.7,��
2015/11/30,23:50,1.680,2.670,3.127,2.895,3.047,0.878,1.545,1.473,��,4.1,��
